Stations météo

réclame
Mon MeteoGroup
St-Auban-Sur-Durance, France (7588): Température de l'air & dewpoint: 13.09.2019 12:00:00 - 19.09.2019 12:00:00 (CEST)St-Auban-Sur-Durance, France (7588): Température de l'air 5cm: 13.09.2019 12:00:00 - 19.09.2019 12:00:00 (CEST)St-Auban-Sur-Durance, France (7588): Température de l'air -20cm: 13.09.2019 12:00:00 - 19.09.2019 12:00:00 (CEST)St-Auban-Sur-Durance, France (7588): Vitesse du vent & gusts: 13.09.2019 12:00:00 - 19.09.2019 12:00:00 (CEST)St-Auban-Sur-Durance, France (7588): Direction du vent: 13.09.2019 12:00:00 - 19.09.2019 12:00:00 (CEST)St-Auban-Sur-Durance, France (7588): reduced air pressure: 13.09.2019 12:00:00 - 19.09.2019 12:00:00 (CEST)St-Auban-Sur-Durance, France (7588): visibility: 13.09.2019 12:00:00 - 19.09.2019 12:00:00 (CEST)St-Auban-Sur-Durance, France (7588): Ensoleillement: 13.09.2019 12:00:00 - 19.09.2019 12:00:00 (CEST)St-Auban-Sur-Durance, France (7588): Quantités de précipitations: 13.09.2019 12:00:00 - 19.09.2019 12:00:00 (CEST)
Date & Time tt [°C] td [°C] tt 5cm [°C] tt -20cm [°C] ff [km/h] ff [knt] fx [km/h] fx [knt] dd ppp [hPa] vv [km] sd [min] rr [mm]
19.09.2019 12:00:00 23,3 12,9 27,6 22,9 7 4 17 9 E 1016,0 20 55 0,0
19.09.2019 11:00:00 20,7 11,9 24,6 23,1 5 3 18 10 N 1016,6 20 14 0,0
19.09.2019 10:00:00 19,9 11,9 22,6 23,2 12 6 24 13 NE 1016,4 20 60 0,0
19.09.2019 09:00:00 17,9 11,9 17,8 23,3 11 6 27 15 NE 1016,2 20 60 0,0
19.09.2019 08:00:00 16,2 11,8 16,5 23,5 12 7 24 13 NE 1016,0 20 10 0,0
19.09.2019 07:00:00 16,1 11,9 16,3 23,7 14 8 29 15 NE 1015,8 20 0 0,0
19.09.2019 06:00:00 16,1 12,1 16,2 23,8 9 5 19 11 ENE 1015,6 20 0 0,0
19.09.2019 05:00:00 16,1 12,3 16,1 24,0 11 6 22 12 NE 1016,0 20 0 0,0
19.09.2019 04:00:00 16,6 13,1 16,1 24,2 7 4 16 9 ENE 1016,1 20 0 0,0
19.09.2019 03:00:00 15,5 14,7 15,2 24,3 8 4 12 6 ENE 1016,4 14 0 0,0
19.09.2019 02:00:00 15,5 14,5 15,2 24,5 4 2 8 4 ENE 1016,6 13 0 0,0
19.09.2019 01:00:00 16,3 15,0 16,6 24,7 4 2 11 6 NNE 1016,5 14 0 0,0
19.09.2019 00:00:00 17,5 16,0 17,7 24,7 9 5 12 6 WNW 1016,5 14 0 0,0
18.09.2019 23:00:00 19,1 16,7 18,6 24,8 3 2 10 5 W 1016,5 18 0 0,0
18.09.2019 22:00:00 20,5 17,1 20,1 24,8 5 3 11 6 WSW 1015,9 20 0 0,0
18.09.2019 21:00:00 21,6 16,5 21,8 24,8 6 3 14 8 WSW 1014,9 20 0 0,0
18.09.2019 20:00:00 23,3 16,1 23,3 24,7 10 5 26 14 SW 1013,8 20 0 0,0
18.09.2019 19:00:00 25,0 15,6 27,0 24,6 16 9 29 15 SSW 1013,0 20 52 0,0
18.09.2019 18:00:00 26,4 15,4 29,8 24,3 17 9 24 13 SSW 1012,4 20 51 0,0
18.09.2019 17:00:00 26,5 15,8 29,4 24,0 16 9 33 18 SSW 1012,3 20 44 0,0
18.09.2019 16:00:00 27,1 14,8 33,0 23,7 25 13 34 19 SW 1012,8 20 60 0,0
18.09.2019 15:00:00 26,7 13,4 33,9 23,4 21 11 32 18 SSW 1013,2 20 60 0,0
18.09.2019 14:00:00 26,5 14,3 31,5 23,2 21 12 33 18 SSW 1013,3 20 58 0,0
18.09.2019 13:00:00 25,4 16,8 32,0 23,1 21 11 29 16 SW 1013,5 20 60 0,0
18.09.2019 12:00:00 24,4 11,0 31,8 23,1 9 5 18 10 SSW 1014,0 20 60 0,0
18.09.2019 11:00:00 22,7 10,5 28,0 23,2 6 3 24 13 N 1014,3 20 60 0,0
18.09.2019 10:00:00 20,5 10,6 23,1 23,3 15 8 30 16 NE 1014,6 20 60 0,0
18.09.2019 09:00:00 18,1 11,2 16,2 23,5 10 6 23 12 ENE 1014,4 20 60 0,0
18.09.2019 08:00:00 14,9 12,0 13,0 23,7 4 2 10 6 E 1015,0 20 16 0,0
18.09.2019 07:00:00 13,3 12,4 13,0 23,9 6 3 11 6 ENE 1015,4 20 0 0,0
18.09.2019 06:00:00 13,5 12,7 13,5 24,1 3 1 13 7 E 1015,3 9 0 0,2
18.09.2019 05:00:00 14,2 13,4 14,3 24,3 5 3 9 5 NE 1015,4 12 0 0,0
18.09.2019 04:00:00 14,8 14,0 14,5 24,4 2 1 6 4 NE 1015,5 13 0 0,0
18.09.2019 03:00:00 15,6 14,6 15,4 24,7 3 2 5 3 ESE 1015,5 16 0 0,0
18.09.2019 02:00:00 16,4 15,1 16,4 24,8 0 0 7 4 N 1015,4 19 0 0,0
18.09.2019 01:00:00 17,2 15,2 17,2 24,9 0 0 5 3 N 1015,1 20 0 0,0
18.09.2019 00:00:00 18,4 15,6 18,1 25,0 0 0 6 3 N 1014,5 20 0 0,0
17.09.2019 23:00:00 19,8 16,2 19,7 25,0 6 3 9 5 NNW 1014,1 20 0 0,0
17.09.2019 22:00:00 22,5 17,0 22,4 25,0 7 4 16 9 WSW 1013,7 20 0 0,0
17.09.2019 21:00:00 24,6 17,3 24,5 25,0 5 3 22 12 S 1012,9 20 0 0,0
17.09.2019 20:00:00 26,6 16,8 26,8 24,9 7 4 29 16 SSW 1011,6 20 0 0,0
17.09.2019 19:00:00 29,7 12,6 31,3 24,7 18 10 29 16 S 1010,2 20 53 0,0
17.09.2019 18:00:00 31,0 13,7 34,2 24,4 16 9 28 15 S 1010,1 20 58 0,0
17.09.2019 17:00:00 31,4 14,1 37,2 24,0 21 12 34 18 SSW 1010,4 20 60 0,0
17.09.2019 16:00:00 31,1 14,3 37,2 23,6 26 14 35 19 SW 1011,1 20 60 0,0
17.09.2019 15:00:00 31,5 13,7 37,6 23,3 21 12 33 18 SW 1011,6 20 60 0,0
17.09.2019 14:00:00 30,7 12,1 38,4 23,1 21 12 27 15 SW 1012,3 20 60 0,0
17.09.2019 13:00:00 30,3 11,3 35,7 22,9 10 6 28 15 NNW 1013,1 20 60 0,0
17.09.2019 12:00:00 28,2 12,1 32,1 22,9 12 6 27 15 NNE 1014,0 20 60 0,0
17.09.2019 11:00:00 25,1 12,3 28,8 22,9 12 6 26 14 NE 1015,0 20 60 0,0
17.09.2019 10:00:00 22,0 12,3 23,5 23,1 9 5 21 11 ENE 1016,0 20 60 0,0
17.09.2019 09:00:00 19,4 12,4 18,3 23,2 6 4 15 8 E 1016,6 20 60 0,0
17.09.2019 08:00:00 17,7 12,4 15,7 23,4 5 3 14 7 ENE 1016,9 20 22 0,0
17.09.2019 07:00:00 15,1 13,1 14,4 23,6 8 4 14 7 E 1017,1 20 0 0,0
17.09.2019 06:00:00 14,5 13,2 13,8 23,8 6 3 12 7 E 1017,4 20 0 0,0
17.09.2019 05:00:00 14,0 13,0 13,8 24,0 4 2 10 6 ENE 1017,7 19 0 0,0
17.09.2019 04:00:00 14,5 13,4 14,6 24,1 4 2 7 4 E 1017,9 17 0 0,0
17.09.2019 03:00:00 15,2 13,9 15,0 24,3 2 1 5 3 ENE 1018,1 20 0 0,0
17.09.2019 02:00:00 15,9 14,3 15,8 24,5 3 1 7 4 ESE 1018,4 20 0 0,0
17.09.2019 01:00:00 16,8 14,6 16,8 24,6 3 2 5 3 WNW 1018,4 20 0 0,0
17.09.2019 00:00:00 18,6 15,3 18,2 24,7 0 0 8 4 N 1018,3 20 0 0,0
16.09.2019 23:00:00 20,2 15,8 19,8 24,8 2 1 19 10 WSW 1017,7 20 0 0,0
16.09.2019 22:00:00 21,8 16,1 22,2 24,8 14 8 18 10 WSW 1017,2 20 0 0,0
16.09.2019 21:00:00 23,2 15,8 23,6 24,7 11 6 16 9 WSW 1016,7 20 0 0,0
16.09.2019 20:00:00 25,4 15,4 25,3 24,6 6 3 30 16 WSW 1015,6 20 0 0,0
16.09.2019 19:00:00 28,4 12,7 30,1 24,3 24 13 32 18 SW 1014,5 20 55 0,0
16.09.2019 18:00:00 30,1 13,0 34,2 24,0 24 13 35 19 SSW 1014,2 20 60 0,0
16.09.2019 17:00:00 30,3 14,8 35,9 23,7 20 11 32 17 SSW 1014,5 20 60 0,0
16.09.2019 16:00:00 30,3 14,4 37,1 23,3 18 10 29 15 SSW 1014,8 20 60 0,0
16.09.2019 15:00:00 30,0 13,7 37,5 22,9 11 6 19 10 SSW 1015,6 19 60 0,0
16.09.2019 14:00:00 28,7 13,0 36,1 22,6 10 5 17 9 SSW 1016,7 20 60 0,0
16.09.2019 13:00:00 27,5 13,4 33,6 22,5 6 4 14 8 WSW 1017,8 20 60 0,0
16.09.2019 12:00:00 25,4 12,9 30,7 22,4 7 4 15 8 SSE 1019,0 20 60 0,0
16.09.2019 11:00:00 23,1 13,0 26,4 22,5 8 4 16 9 ENE 1020,0 20 60 0,0
16.09.2019 10:00:00 19,7 12,9 21,8 22,6 8 4 14 8 ENE 1020,9 20 60 0,0
16.09.2019 09:00:00 17,5 12,8 17,0 22,8 4 2 11 6 E 1021,3 20 60 0,0
16.09.2019 08:00:00 14,9 12,6 13,6 23,0 7 4 10 5 NE 1021,5 20 19 0,0
16.09.2019 07:00:00 14,0 11,9 13,7 23,2 2 1 11 6 E 1021,5 20 0 0,0
16.09.2019 06:00:00 14,1 12,1 13,8 23,3 5 3 10 5 NE 1021,5 20 0 0,0
16.09.2019 05:00:00 14,4 12,1 14,5 23,5 8 5 11 6 NNE 1021,9 20 0 0,0
16.09.2019 04:00:00 14,9 12,2 14,8 23,6 6 3 11 6 NE 1022,0 20 0 0,0
16.09.2019 03:00:00 15,7 12,6 15,6 23,8 3 2 9 5 ENE 1022,1 20 0 0,0
16.09.2019 02:00:00 16,2 12,6 16,5 24,0 3 2 8 4 ENE 1022,3 20 0 0,0
16.09.2019 01:00:00 16,3 12,5 16,5 24,1 2 1 10 5 ESE 1022,4 20 0 0,0
16.09.2019 00:00:00 17,4 12,9 17,2 24,2 0 0 8 5 N 1022,2 20 0 0,0
15.09.2019 23:00:00 18,2 13,1 18,0 24,3 3 1 7 4 E 1022,0 20 0 0,0
15.09.2019 22:00:00 20,0 12,5 19,4 24,3 3 1 12 7 ESE 1021,6 20 0 0,0
15.09.2019 21:00:00 21,9 13,0 20,8 24,2 2 1 13 7 E 1021,5 20 0 0,0
15.09.2019 20:00:00 24,7 12,6 24,7 24,2 9 5 24 13 SW 1021,0 20 0 0,0
15.09.2019 19:00:00 26,7 12,4 28,5 23,9 17 9 32 17 SW 1020,4 20 54 0,0
15.09.2019 18:00:00 28,5 12,0 32,5 23,6 22 12 29 15 SSW 1020,0 20 60 0,0
15.09.2019 17:00:00 29,6 10,7 35,9 23,3 18 10 27 14 SSW 1020,0 20 60 0,0
15.09.2019 16:00:00 30,0 12,4 36,9 22,9 19 10 27 15 SSW 1020,4 20 60 0,0
15.09.2019 15:00:00 29,7 8,7 36,6 22,6 16 9 27 15 SSW 1021,3 20 60 0,0
15.09.2019 14:00:00 28,9 11,5 36,1 22,3 11 6 25 13 S 1022,0 19 60 0,0
15.09.2019 13:00:00 27,7 12,5 35,1 22,1 13 7 24 13 SSW 1022,9 20 60 0,0
15.09.2019 12:00:00 25,7 13,2 32,5 22,1 7 4 18 10 NNE 1023,6 20 60 0,0
15.09.2019 11:00:00 23,2 13,7 26,4 22,1 9 5 24 13 NE 1024,5 20 60 0,0
15.09.2019 10:00:00 20,6 13,5 22,2 22,3 8 4 16 9 ENE 1025,2 20 60 0,0
15.09.2019 09:00:00 17,0 13,5 16,5 22,4 6 4 13 7 ENE 1026,1 20 52 0,0
15.09.2019 08:00:00 14,4 12,4 13,9 22,6 3 2 9 5 NNE 1026,9 20 14 0,0
15.09.2019 07:00:00 13,7 12,4 13,5 22,8 7 4 12 7 NE 1026,6 20 0 0,0
15.09.2019 06:00:00 14,3 12,5 14,4 23,0 8 5 14 7 NNE 1026,3 20 0 0,0
15.09.2019 05:00:00 14,5 13,0 14,4 23,1 6 4 11 6 ENE 1026,4 20 0 0,0
15.09.2019 04:00:00 14,7 12,6 14,7 23,3 7 4 13 7 NE 1027,0 20 0 0,0
15.09.2019 03:00:00 15,5 13,3 15,4 23,4 7 4 11 6 NNE 1026,6 20 0 0,0
15.09.2019 02:00:00 16,3 13,6 16,2 23,6 6 3 10 5 ENE 1026,7 20 0 0,0
15.09.2019 01:00:00 16,7 13,2 16,5 23,7 8 4 9 5 NNE 1026,6 20 0 0,0
15.09.2019 00:00:00 17,4 13,3 17,1 23,8 0 0 8 4 N 1026,4 20 0 0,0
14.09.2019 23:00:00 18,6 13,7 18,0 23,9 2 1 9 5 ESE 1026,5 20 0 0,0
14.09.2019 22:00:00 20,6 13,5 19,8 23,9 2 1 8 4 S 1026,2 20 0 0,0
14.09.2019 21:00:00 22,3 14,2 21,4 23,9 6 3 10 5 W 1025,5 20 0 0,0
14.09.2019 20:00:00 24,1 13,9 23,9 23,8 5 3 17 9 SW 1024,7 20 0 0,0
14.09.2019 19:00:00 25,9 13,1 27,2 23,6 13 7 27 15 SSW 1023,8 20 0 0,0
14.09.2019 18:00:00 27,3 12,9 29,6 23,4 16 8 22 12 SW 1023,4 20 0 0,0
14.09.2019 17:00:00 27,6 12,4 30,6 23,1 19 10 32 17 SW 1023,4 20 0 0,0
14.09.2019 16:00:00 28,5 13,2 32,6 22,8 15 8 20 11 SW 1023,6 20 0 0,0
14.09.2019 15:00:00 28,9 11,9 35,3 22,5 12 7 29 16 S 1024,0 20 56 0,0
14.09.2019 14:00:00 28,8 11,4 35,8 22,2 17 9 27 14 SW 1024,6 20 60 0,0
14.09.2019 13:00:00 27,7 11,3 32,8 22,1 6 3 17 9 SSE 1025,1 20 60 0,0
14.09.2019 12:00:00 25,0 11,2 28,9 22,1 8 4 16 9 ENE 1025,8 20 60 0,0
14.09.2019 11:00:00 21,9 12,7 25,6 22,1 10 5 19 10 NE 1027,1 20 33 0,0
14.09.2019 10:00:00 19,4 12,4 22,0 22,2 12 6 21 11 NE 1028,0 20 60 0,0
14.09.2019 09:00:00 15,8 12,2 16,3 22,4 6 4 16 8 ENE 1029,1 20 60 0,0
14.09.2019 08:00:00 13,6 12,0 13,5 22,6 7 4 12 6 ENE 1029,5 20 26 0,0
14.09.2019 07:00:00 13,0 11,4 13,2 22,8 7 4 14 8 NNE 1029,4 20 0 0,0
14.09.2019 06:00:00 13,4 11,8 13,3 23,0 5 3 12 6 NE 1029,0 20 0 0,0
14.09.2019 05:00:00 13,8 11,8 13,8 23,2 6 4 13 7 E 1029,2 20 0 0,0
14.09.2019 04:00:00 14,4 11,9 14,5 23,4 4 2 11 6 ENE 1028,7 20 0 0,0
14.09.2019 03:00:00 14,8 12,1 14,6 23,5 5 3 9 5 NNE 1028,3 20 0 0,0
14.09.2019 02:00:00 15,3 12,2 15,4 23,7 0 0 8 4 N 1028,6 20 0 0,0
14.09.2019 01:00:00 16,4 12,6 16,3 23,8 2 1 8 4 E 1028,0 20 0 0,0
14.09.2019 00:00:00 17,3 12,6 17,1 23,9 3 2 14 8 S 1027,6 20 0 0,0
13.09.2019 23:00:00 18,7 12,9 18,1 24,0 4 2 9 5 NE 1027,3 20 0 0,0
13.09.2019 22:00:00 21,4 13,1 20,5 24,0 2 1 13 7 NNE 1027,2 20 0 0,0
13.09.2019 21:00:00 23,0 13,2 23,1 23,9 11 6 22 12 WSW 1026,6 20 0 0,0
13.09.2019 20:00:00 25,1 12,7 25,0 23,8 7 4 18 10 W 1025,5 20 0 0,0
13.09.2019 19:00:00 28,2 12,9 29,7 23,5 13 7 26 14 SSW 1025,0 20 42 0,0
13.09.2019 18:00:00 30,3 12,7 34,6 23,2 22 12 37 20 SW 1024,8 20 60 0,0
13.09.2019 17:00:00 30,7 11,6 36,6 22,8 18 10 26 14 SSW 1024,8 20 60 0,0
13.09.2019 16:00:00 30,7 10,6 38,2 22,4 12 7 26 14 SSW 1025,2 17 60 0,0
13.09.2019 15:00:00 30,0 10,0 37,7 22,0 15 8 27 15 SW 1025,8 19 60 0,0
13.09.2019 14:00:00 29,8 10,8 37,5 21,7 15 8 27 14 SW 1026,4 20 60 0,0
13.09.2019 13:00:00 28,4 11,5 34,1 21,5 5 3 13 7 S 1027,1 18 60 0,0
13.09.2019 12:00:00 26,0 11,4 31,9 21,4 7 4 18 10 ENE 1028,0 18 60 0,0

tt = Température de l'air
td = dewpoint
tt 5cm = Température de l'air 5cm
tt -20cm = Température de l'air -20cm
ff = Vitesse du vent
fx = gusts
dd = Direction du vent
ppp = reduced air pressure
vv = visibility
sd = Ensoleillement
rr = Quantités de précipitations

stations d'obs. à proximité